Погода в Гатихе

Россия / Владимирская область     56°12′47″N   40°51′39″E
темп.,
°C
ветер,
м/с
пор.,
м/с
влажн.,
%
обл.,
%
осадки,
мм/ч
давл.,
гПа
погр.,
м
25 июля, вс
вс2500:00+14ссз1154100 0.0 101716
03:00+12сз236133 0.0 101944
06:00+12сз12655 0.0 102063
09:00+19зюз224330 0.0 1020643
12:00+20зюз234074 0.0 1020934
15:00+21з553782 0.0 10202090
18:00+20з244399 0.0 1020159
21:00+16з336356 0.0 102137
26 июля, пн
пн2600:00+15зюз226366 0.0 102216
03:00+16юз3556100 0.0 102298
06:00+16зюз2459100 0.0 1022136
09:00+20з344762 0.0 1023477
12:00+25зсз4533100 0.0 10222670
15:00+24зсз453683 0.0 10221520
18:00+24зюз3541100 0.0 10211230
21:00+18з365597 0.0 102185
27 июля, вт
вт2700:00+18з3855100 0.0 1021184
03:00+18з37625 0.0 1021152
06:00+17ссз25735 0.0 1022156
09:00+23ссз23475 0.0 1021570
12:00+27сз353584 0.0 10202714
15:00+24ссз234698 0.0 1019156
18:00+21всв346338 0.1 1018143
21:00+18всв3373100 0.2 101827
28 июля, ср
ср2800:00+16ю24867 0.9 101853
03:00+15юз018627 1.0 101810
06:00+17ююз00825 0.0 101744
09:00+23ю21560 0.0 1016458
12:00+28зюз343928 0.0 10141857
15:00+28зюз3538100 0.0 10121787
18:00+21з61273100 0.5 1011307
21:00+17зюз4992100 2.2 1011227
29 июля, чт
чт2900:00+17ю2492100 0.6 1010134
03:00+16юв3798100 6.0 1008248
06:00+17юв4897100 1.2 1006426
09:00+17ююв3494100 1.2 1005389
12:00+18ююз2495100 0.6 1005314
15:00+20зсз578795 2.6 1005747
18:00+21зсз588615 1.3 1004756
21:00+17з36962 1.9 1005154